Regional Weather Roundup
Issued by NWS

Home | Current Version | Previous Version | Graphics & Text | Print | Product List | Glossary On
Versions: 1 2 3 4 5 6 7 8 9 10 11 12 13 14 15 16 17 18 19 20 21 22 23 24 25 26 27 28 29 30 31 32 33 34 35 36 37 38 39 40 41 42 43 44 45 46 47 48 49 50
000
ASUS43 KOAX 250710
RWRNE

WEATHER ROUNDUP FOR NEBRASKA
NATIONAL WEATHER SERVICE OMAHA NE
100 AM CST SUN JAN 25 2015

NOTES: SATELLITE DATA IS BEING USED TO AUGMENT CLOUD COVER ABOVE
       12000 FEET.
       "FAIR" INDICATES FEW OR NO CLOUDS BELOW 12,000 FEET WITH NO
       SIGNIFICANT WEATHER AND/OR OBSTRUCTIONS TO VISIBILITY.

  * THESE STATIONS DO NOT REPORT WEATHER SUCH AS RAIN...SNOW OR FOG.

NEZ001>004-019>022-054>056-250800-
NEBRASKA PANHANDLE

CITY           SKY/WX    TMP DP  RH WIND       PRES   REMARKS
SCOTTSBLUFF    PTCLDY    38  28  67 W25G32    30.06F WCI  27
ALLIANCE       CLEAR     36  25  64 NW23      30.00S WCI  24
CHADRON        CLEAR     36  28  73 NW22G31   30.03R WCI  25
KIMBALL        MOCLDY    36  27  67 NW20G25   30.08R WCI  26
SIDNEY         CLEAR     36  26  67 NW20      30.06F WCI  25
$$

NEZ057>060-069>072-079>082-250800-
SOUTHWEST NEBRASKA

CITY           SKY/WX    TMP DP  RH WIND       PRES   REMARKS
NORTH PLATTE   CLEAR     35  29  78 NW10      29.91R WCI  27
IMPERIAL       CLEAR     39  27  62 NW21G28   29.99R WCI  29
LEXINGTON      PTCLDY    44  31  60 NW29G44   29.85S
MCCOOK         CLEAR     42  30  62 NW18G30   29.93S
OGALLALA       CLEAR     37  29  73 NW18      29.98S WCI  27
$$

NEZ005>010-023>029-035>040-094-250800-
NORTH CENTRAL NEBRASKA

CITY           SKY/WX    TMP DP  RH WIND       PRES   REMARKS
VALENTINE      MOCLDY    40  30  67 NW30G49   29.87R WCI  28
AINSWORTH      CLOUDY    38  34  86 NW29      29.86R WCI  26
BROKEN BOW     CLOUDY    44  31  60 NW36G49   29.81R
O`NEILL        DRIZZLE   37  35  90 N24G41    29.78R WCI  26
ORD            CLOUDY    41  34  76 NW29G43   29.76R
THEDFORD       PTCLDY    41  31  67 NW33G45   29.88R
$$

NEZ041-046>049-061>064-073>077-083>087-250800-
SOUTH CENTRAL NEBRASKA

CITY           SKY/WX    TMP DP  RH WIND       PRES   REMARKS
GRAND ISLAND   CLOUDY    42  36  79 NW28G33   29.76R
AURORA         MOCLDY    42  35  75 NW29      29.73R
HASTINGS       MOCLDY    46  31  55 NW31G44   29.75S
HEBRON         MOCLDY    45  33  64 NW16      29.73S
HOLDREGE       CLOUDY    45  30  56 NW22G30   29.83S
KEARNEY *      CLOUDY    45  30  57 NW28G37   29.79F
YORK           MOCLDY    41  37  87 NW24G37   29.70S
$$

NEZ011>018-030>034-042>045-250800-
NORTHEAST NEBRASKA

CITY           SKY/WX    TMP DP  RH WIND       PRES   REMARKS
NORFOLK        CLOUDY    38  34  85 NW28G44   29.67R WCI  26
ALBION         CLOUDY    39  33  78 NW24G30   29.71R WCI  29
BLAIR          CLOUDY    42  37  82 NW14G25   29.61S
COLUMBUS *     CLOUDY    41  32  70 NW30G40   29.68S
FREMONT        CLOUDY    43  37  79 NW29G37   29.64S
TEKAMAH        CLOUDY    42  37  82 NW18      29.61S
WAYNE          LGT RAIN  37  35  93 NW30G39   29.65R WCI  24
$$

NEZ050>053-065>068-078-088>093-250800-
SOUTHEAST NEBRASKA

CITY           SKY/WX    TMP DP  RH WIND       PRES   REMARKS
LINCOLN        LGT RAIN  45  38  76 NW18      29.67S
OMAHA EPPLEY   LGT RAIN  42  38  85 NW22      29.61S
BEATRICE       MOCLDY    45  38  76 NW17G26   29.67F
FALLS CITY     CLOUDY    44  39  82 W14       29.63F
NEBRASKA CITY  MOCLDY    44  35  70 NW17G23   29.62F
PLATTSMOUTH    MOCLDY    43  36  76 NW20      29.61S
$$

NEZ044-045-051>053-067-250800-
OMAHA AREA

CITY           SKY/WX    TMP DP  RH WIND       PRES   REMARKS
OMAHA EPPLEY   LGT RAIN  42  38  85 NW22      29.61S
BLAIR          CLOUDY    42  37  82 NW14G25   29.61S
FREMONT        CLOUDY    43  37  79 NW29G37   29.64S
MILLARD        CLOUDY    44  37  76 NW17G26   29.62S
OFFUTT AFB     MOCLDY    45  37  76 NW15G24   29.61S
PLATTSMOUTH    MOCLDY    43  36  76 NW20      29.61S
WAHOO          CLOUDY    43  34  70 NW20G28   29.64F
$$


USA.gov is the U.S. government's official web portal to all federal, state and local government web resources and services.